Location: Milton
(43.5183°N, 79.8775°W)
Time: 05:30:50
(UTC+00:00)

N. Korean satellite - Pass Details

Date: 09 December 2022
Orbit: 407 x 444 km, 97.3° (Epoch: 28 January)

Event Time Altitude Azimuth Distance (km) Brightness Sun altitude
Rises 09:36:47 0° 33° (NNE) 2,487 10.5 -32.4°
Reaches altitude 10° 09:39:50 10° 63° (ENE) 1,593 9.8 -31.9°
Maximum altitude 09:41:24 13° 91° (E) 1,428 9.7 -31.6°
Drops below altitude 10° 09:42:57 10° 118° (ESE) 1,572 9.9 -31.3°
Sets 09:45:55 0° 149° (SSE) 2,420 10.5 -30.8°
